EDT,Max TemperatureF,Mean TemperatureF,Min TemperatureF,Max Dew PointF,MeanDew PointF,Min DewpointF,Max Humidity, Mean Humidity, Min Humidity, Max Sea Level PressureIn, Mean Sea Level PressureIn, Min Sea Level PressureIn, Max VisibilityMiles, Mean VisibilityMiles, Min VisibilityMiles, Max Wind SpeedMPH, Mean Wind SpeedMPH, Max Gust SpeedMPH,PrecipitationIn, CloudCover, Events, WindDirDegrees
2013-10-1,71,62,52,55,51,48,93,76,51,29.94,29.90,29.86,10,10,10,13,4,21,0.00,0,,326
2013-10-2,80,66,53,61,57,51,93,69,50,29.94,29.88,29.83,10,10,10,17,5,22,0.00,0,,262
2013-10-3,75,68,59,56,53,48,87,62,38,30.07,30.03,29.95,10,10,10,12,7,,0.00,0,,290
2013-10-4,73,60,48,57,54,47,93,83,49,30.07,30.05,30.02,10,10,9,13,2,,0.01,5,Rain,3
2013-10-5,68,62,55,61,58,54,97,87,73,30.12,30.07,30.05,10,10,5,7,2,,0.09,6,Rain,20
2013-10-6,64,59,55,59,56,53,97,88,72,30.19,30.15,30.11,10,9,2,10,2,20,0.08,7,Rain,104
2013-10-7,75,68,64,68,65,60,94,89,76,30.12,29.98,29.87,10,8,5,16,10,28,0.04,7,Rain,171
2013-10-8,66,57,46,65,52,43,94,75,50,30.34,30.10,29.89,10,9,2,17,8,28,0.08,3,Rain,335
2013-10-9,64,56,48,45,44,42,86,68,50,30.41,30.37,30.33,10,10,10,13,7,24,0.00,0,,55
2013-10-10,68,58,50,57,54,46,93,83,66,30.32,30.22,30.13,10,10,10,12,6,,0.00,3,,49
2013-10-11,69,60,53,59,56,50,94,86,65,30.12,30.09,30.06,10,10,10,15,8,24,0.00,3,,36
2013-10-12,64,58,51,55,52,47,90,81,70,30.35,30.25,30.11,10,10,10,15,8,24,0.00,3,,51
2013-10-13,62,51,39,48,44,37,89,75,54,30.41,30.38,30.33,10,10,10,12,6,20,0.00,2,,53
2013-10-14,62,49,36,47,42,33,97,80,58,30.40,30.32,30.27,10,10,10,8,1,,0.00,0,,146
2013-10-15,66,52,39,52,45,38,97,80,52,30.26,30.22,30.16,10,10,6,8,1,,0.00,0,,74
2013-10-16,61,57,46,61,55,45,100,94,78,30.15,30.00,29.90,10,5,0,13,5,17,0.01,7,Fog-Rain,23
2013-10-17,69,62,57,61,57,55,97,91,76,29.90,29.85,29.76,10,5,0,13,4,,0.00,6,Fog,240
2013-10-18,72,60,50,63,56,43,100,77,41,29.92,29.74,29.64,10,10,7,16,9,23,0.01,4,Rain,238
2013-10-19,63,54,44,55,44,37,90,65,39,29.99,29.90,29.77,10,10,10,9,4,,0.01,2,Rain,199
2013-10-20,64,52,39,57,45,32,89,67,30,30.02,29.82,29.71,10,10,10,13,7,24,0.00,2,,255
2013-10-21,66,50,36,46,39,33,89,64,33,30.12,30.07,30.02,10,10,10,16,4,22,0.00,0,,237
2013-10-22,66,55,46,55,50,41,93,76,59,30.02,29.83,29.72,10,10,7,14,4,,0.02,3,Rain,228
2013-10-23,54,46,39,44,39,34,93,70,51,29.77,29.68,29.57,10,10,6,10,6,20,0.26,6,Rain,345
2013-10-24,54,46,37,40,31,25,82,58,33,29.89,29.78,29.63,10,10,10,18,8,25,0.00,1,,277
2013-10-25,53,45,39,33,29,27,70,55,44,30.16,30.01,29.90,10,10,10,10,6,,0.00,1,,295
2013-10-26,57,42,28,41,33,26,92,62,40,30.17,30.06,29.89,10,10,10,26,9,34,0.00,2,,235
2013-10-27,59,52,42,41,33,29,74,50,39,30.06,29.90,29.83,10,10,10,20,10,25,0.00,3,Rain,282
2013-10-28,59,46,33,38,33,28,89,56,36,30.31,30.16,30.08,10,10,10,20,7,26,0.00,1,,284
2013-10-29,52,42,32,37,33,30,92,69,50,30.39,30.37,30.32,10,10,10,9,4,,0.00,5,,31
2013-10-30,54,42,30,47,41,29,100,87,74,30.35,30.26,30.20,10,10,2,5,0,,0.02,5,Rain,270
2013-10-31,64,50,37,59,50,35,97,86,70,30.24,30.12,29.89,10,9,7,15,4,23,0.00,6,Rain,192